This is the latest recevied weather packets stored in our database for station/object DK7LH-6. If no packets are shown the sender has not sent any weather packets the latest 1 day(s).
| Time | Temp. | Humidity | Pressure | Rain* | Wind** | Luminosity | Snow |
|---|---|---|---|---|---|---|---|
| 1836274413 | 14.44° C | 92% | 1013.5 hPa | 0 mm | 0.89 m/s, 124° | 0 W/m² | - |
| 1778031054 | 10° C | 82% | 1007.6 hPa | 0 mm | 1.34 m/s, 67° | 0 W/m² | - |
| 1778030128 | 10.56° C | 82% | 1007.6 hPa | 0 mm | 1.34 m/s, 48° | 0 W/m² | - |
| 1778029257 | 10.56° C | 82% | 1007.7 hPa | 0 mm | 1.34 m/s, 81° | 0 W/m² | - |
| 1778028327 | 10.56° C | 82% | 1007.7 hPa | 0 mm | 0.45 m/s, 13° | 0 W/m² | - |
| 1778027458 | 10.56° C | 82% | 1007.9 hPa | 0 mm | 0.89 m/s, 43° | 0 W/m² | - |
| 1778026528 | 10.56° C | 82% | 1007.8 hPa | 0 mm | 0.45 m/s, 29° | 0 W/m² | - |
| 1778025661 | 10.56° C | 82% | 1008 hPa | 0 mm | 0.89 m/s, 43° | 0 W/m² | - |
| 1778024731 | 10.56° C | 82% | 1008.1 hPa | 0 mm | 0.89 m/s, 37° | 0 W/m² | - |
| 1778023862 | 11.11° C | 83% | 1008.2 hPa | 0 mm | 0.89 m/s, 1° | 0 W/m² | - |
| 1778022932 | 11.11° C | 83% | 1008.3 hPa | 0 mm | 0.45 m/s, 22° | 0 W/m² | - |
| 1778022065 | 11.11° C | 84% | 1008.4 hPa | 0 mm | 0.45 m/s, 23° | 0 W/m² | - |
| 1778021135 | 11.11° C | 84% | 1008.3 hPa | 0 mm | 1.79 m/s, 36° | 0 W/m² | - |
| 1778020266 | 11.11° C | 83% | 1008.3 hPa | 0 mm | 1.34 m/s, 20° | 0 W/m² | - |
| 1778019336 | 11.11° C | 82% | 1008.4 hPa | 0 mm | 1.79 m/s, 24° | 0 W/m² | - |
| 1778018469 | 11.11° C | 82% | 1008.6 hPa | 0 mm | 1.34 m/s, 9° | 0 W/m² | - |
| 1778017539 | 11.11° C | 83% | 1008.7 hPa | 0 mm | 1.34 m/s, 16° | 0 W/m² | - |
| 1778016670 | 11.11° C | 85% | 1008.8 hPa | 0 mm | 0.89 m/s, 15° | 0 W/m² | - |
| 1778015740 | 11.11° C | 85% | 1008.8 hPa | 0 mm | 0.45 m/s, 7° | 0 W/m² | - |
| 1778014872 | 11.11° C | 87% | 1008.8 hPa | 0 mm | 0.89 m/s, 40° | 0 W/m² | - |
| 1778013942 | 11.67° C | 87% | 1008.9 hPa | 0 mm | 1.34 m/s, 24° | 0 W/m² | - |
| 1778013074 | 11.67° C | 88% | 1008.9 hPa | 0 mm | 1.79 m/s, 22° | 0 W/m² | - |
| 1778012145 | 11.67° C | 88% | 1008.8 hPa | 0 mm | 1.79 m/s, 31° | 0 W/m² | - |
| 1778011277 | 11.67° C | 89% | 1008.8 hPa | 0 mm | 1.34 m/s, 15° | 0 W/m² | - |
| 1778010347 | 11.67° C | 89% | 1008.8 hPa | 0 mm | 1.79 m/s, 5° | 0 W/m² | - |
* Rain latest hour (hover to see other rain measurements)
** Current wind speed in m/s (hover to see current wind gust speed)